DW3765 Weather Reports


Display with metric or nautical units.
time (UTC)temp
F
wind
direction
speed
MPH
gust
MPH
rain 1hr
in
rain 24hr
in
rain mn
in
humidity
%
barometer
mb
20260508014214 65 96 5.0 10.0 0.00 0.00 0.00 67 1013.9
20260508013720 65 129 4.0 9.0 0.00 0.00 0.00 67 1014.0
20260508013127 65 355 1.0 9.0 0.00 0.00 0.00 67 1014.2
20260508012640 66 15 3.0 8.0 0.00 0.00 0.00 67 1014.1
20260508012206 66 5 1.0 6.0 0.00 0.00 0.00 67 1014.3
20260508011702 66 31 3.0 6.0 0.00 0.00 0.00 66 1014.3
20260508011158 66 336 1.0 8.0 0.00 0.00 0.00 66 1014.5
20260508010721 66 21 5.0 12.0 0.00 0.00 0.00 65 1014.3
20260508010208 66 28 4.0 13.0 0.00 0.00 0.00 65 1014.3
20260508005703 66 355 7.0 11.0 0.00 0.00 0.00 64 1014.2
20260508005221 66 55 4.0 18.0 0.00 0.00 0.00 64 1013.1
20260508004717 66 80 11.0 22.0 0.00 0.00 0.00 63 1012.4
20260508004208 66 80 13.0 22.0 0.00 0.00 0.00 63 1011.8
20260508003645 67 77 10.0 16.0 0.00 0.00 0.00 63 1012.1
20260508002704 67 67 8.0 14.0 0.00 0.00 0.00 62 1013.2
20260508002202 67 53 7.0 12.0 0.00 0.00 0.00 62 1013.7
20260508001711 67 112 4.0 10.0 0.00 0.00 0.00 62 1013.9
20260508001136 67 78 7.0 10.0 0.00 0.00 0.00 62 1014.2
20260508000651 68 46 6.0 9.0 0.00 0.00 0.00 62 1014.6
20260508000141 68 59 1.0 11.0 0.00 0.00 0.00 62 1014.8
20260507235705 68 33 6.0 11.0 0.00 0.00 0.00 62 1014.6
20260507235219 68 91 3.0 9.0 0.00 0.00 0.00 62 1014.7
20260507234658 68 11 1.0 5.0 0.00 0.00 0.00 62 1015.4
20260507233653 68 63 4.0 10.0 0.00 0.00 0.00 61 1015.1
20260507233211 69 76 7.0 12.0 0.00 0.00 0.00 59 1015.4
20260507232659 69 49 6.0 12.0 0.00 0.00 0.00 59 1015.6
20260507232210 69 16 1.0 11.0 0.00 0.00 0.00 63 1015.5
20260507231723 69 28 5.0 12.0 0.00 0.00 0.00 62 1015.7
20260507231129 69 52 2.0 12.0 0.00 0.00 0.00 62 1015.8
20260507230639 69 360 7.0 11.0 0.00 0.00 0.00 60 1015.8
20260507230154 69 13 4.0 11.0 0.00 0.00 0.00 62 1015.8
20260507225143 70 32 8.0 15.0 0.00 0.00 0.00 58 1015.8
20260507224638 70 39 6.0 12.0 0.00 0.00 0.00 59 1015.8
20260507224146 70 32 6.0 12.0 0.00 0.00 0.00 60 1015.9
20260507223135 69 331 4.0 15.0 0.00 0.00 0.00 61 1016.2
20260507222647 70 49 7.0 15.0 0.00 0.00 0.00 60 1015.9
20260507221637 69 17 4.0 10.0 0.00 0.00 0.00 63 1015.8
20260507221159 68 36 5.0 9.0 0.00 0.00 0.00 63 1015.6
20260507220723 68 51 6.0 9.0 0.00 0.00 0.00 63 1015.8
20260507220223 68 63 6.0 11.0 0.00 0.00 0.00 63 1016.1
20260507215726 68 40 5.0 12.0 0.00 0.00 0.00 62 1016.4
20260507215219 68 41 6.0 12.0 0.00 0.00 0.00 62 1016.5
20260507214628 68 5 8.0 15.0 0.00 0.00 0.00 60 1016.3
20260507214154 68 13 7.0 15.0 0.00 0.00 0.00 62 1016.1
20260507213652 68 24 9.0 14.0 0.00 0.00 0.00 61 1016.1
20260507213206 69 13 8.0 16.0 0.00 0.00 0.00 61 1016.2
20260507212711 68 5 10.0 16.0 0.00 0.00 0.00 62 1016.6
20260507212124 68 26 8.0 15.0 0.00 0.00 0.00 63 1016.7
20260507211723 68 313 7.0 13.0 0.00 0.00 0.00 64 1016.8
20260507211131 68 17 6.0 18.0 0.00 0.00 0.00 63 1016.9
20260507210656 68 5 2.0 18.0 0.00 0.00 0.00 64 1016.7
20260507205720 68 24 7.0 20.0 0.00 0.00 0.00 65 1016.0
20260507205213 68 55 7.0 20.0 0.00 0.00 0.00 64 1015.9
20260507204716 69 5 4.0 18.0 0.00 0.00 0.00 65 1016.3
20260507204214 68 340 10.0 18.0 0.00 0.00 0.00 64 1016.3
20260507203221 69 22 4.0 16.0 0.00 0.00 0.00 65 1016.5
20260507202716 69 27 7.0 20.0 0.00 0.00 0.00 65 1016.3
20260507202210 69 32 9.0 20.0 0.00 0.00 0.00 66 1015.6
20260507201646 68 42 3.0 11.0 0.00 0.00 0.00 67 1016.1
20260507201139 68 20 6.0 15.0 0.00 0.00 0.00 68 1016.5
20260507200658 67 42 10.0 15.0 0.00 0.00 0.00 67 1016.3
20260507200209 67 51 8.0 16.0 0.00 0.00 0.00 70 1016.3
20260507195711 67 12 8.0 16.0 0.00 0.00 0.00 71 1016.2
20260507195124 67 38 4.0 18.0 0.00 0.00 0.00 72 1016.6
20260507194643 67 21 8.0 18.0 0.00 0.00 0.00 71 1016.5
20260507194158 67 32 5.0 14.0 0.00 0.00 0.00 74 1017.1
20260507193721 67 346 7.0 14.0 0.00 0.00 0.00 76 1016.8
20260507193219 65 360 7.0 13.0 0.00 0.00 0.00 77 1016.9
20260507192708 65 328 6.0 13.0 0.00 0.00 0.00 80 1016.7
20260507192203 65 46 6.0 13.0 0.00 0.00 0.00 80 1016.7
20260507191728 64 9 8.0 13.0 0.00 0.00 0.00 82 1016.5
20260507191222 64 19 5.0 14.0 0.00 0.00 0.00 83 1016.5
20260507190628 63 36 9.0 14.0 0.00 0.00 0.00 84 1016.5
20260507190149 63 13 5.0 13.0 0.00 0.00 0.00 84 1016.6
20260507185708 63 71 4.0 11.0 0.00 0.00 0.00 86 1016.7
20260507185128 62 28 5.0 10.0 0.00 0.00 0.00 86 1016.8
20260507184644 62 53 4.0 8.0 0.00 0.00 0.00 86 1016.9
20260507184152 62 98 5.0 11.0 0.00 0.00 0.00 85 1017.3
20260507183719 62 70 3.0 8.0 0.00 0.00 0.00 86 1017.5
20260507182636 62 13 2.0 11.0 0.00 0.00 0.00 84 1017.5
20260507182202 62 355 6.0 14.0 0.00 0.00 0.00 82 1017.5
20260507181718 63 26 9.0 14.0 0.00 0.00 0.00 80 1017.6
20260507181218 63 348 7.0 13.0 0.00 0.00 0.00 79 1018.5
20260507180634 63 33 7.0 13.0 0.00 0.00 0.00 78 1018.4
20260507180145 63 26 6.0 12.0 0.00 0.00 0.00 78 1018.2
20260507175658 63 355 6.0 14.0 0.00 0.00 0.00 78 1018.0
20260507175151 64 21 7.0 14.0 0.00 0.00 0.00 78 1018.0
20260507174139 64 5 8.0 13.0 0.00 0.00 0.00 78 1018.0
20260507173652 63 24 4.0 12.0 0.00 0.00 0.00 79 1017.9
20260507172640 63 44 8.0 13.0 0.00 0.00 0.00 79 1017.7
20260507172156 63 5 4.0 13.0 0.00 0.00 0.00 81 1017.8
20260507171720 62 351 6.0 15.0 0.00 0.00 0.00 81 1017.7
20260507171132 62 15 8.0 18.0 0.00 0.00 0.00 82 1017.7
20260507170648 61 360 4.0 13.0 0.00 0.00 0.00 83 1017.7
20260507165637 61 13 8.0 19.0 0.00 0.00 0.00 84 1017.9
20260507165155 60 17 6.0 12.0 0.00 0.00 0.00 84 1018.0
20260507164720 60 342 5.0 15.0 0.00 0.00 0.00 85 1018.1
20260507164130 60 16 9.0 15.0 0.00 0.00 0.00 84 1018.5
20260507163712 60 18 9.0 18.0 0.00 0.00 0.00 84 1018.5
20260507163211 60 350 8.0 19.0 0.00 0.00 0.00 85 1018.6
20260507162718 60 5 9.0 15.0 0.00 0.00 0.00 85 1018.0
20260507161642 59 355 7.0 18.0 0.00 0.00 0.00 86 1018.2
20260507161206 59 334 5.0 18.0 0.00 0.00 0.00 86 1018.1
20260507160659 59 38 7.0 18.0 0.00 0.00 0.00 86 1018.0
20260507160154 59 53 9.0 15.0 0.00 0.00 0.00 87 1018.0
20260507155645 59 22 4.0 21.0 0.00 0.00 0.00 87 1018.0
20260507155155 59 19 8.0 21.0 0.00 0.00 0.00 87 1018.1
20260507154643 59 327 6.0 15.0 0.00 0.00 0.00 87 1018.1
20260507154156 58 324 10.0 18.0 0.00 0.00 0.00 87 1018.0
20260507153710 58 5 5.0 21.0 0.00 0.00 0.00 87 1018.3
20260507153151 58 317 8.0 21.0 0.00 0.00 0.00 87 1018.0
20260507152647 58 304 8.0 18.0 0.00 0.00 0.00 87 1017.9
20260507152153 58 26 5.0 22.0 0.00 0.00 0.00 88 1017.9
20260507151709 58 355 8.0 22.0 0.00 0.00 0.00 88 1017.9
20260507151334 58 42 8.0 19.0 0.00 0.00 0.00 88 1018.0
20260507150626 58 22 9.0 21.0 0.00 0.00 0.00 88 1018.0
20260507150142 58 5 9.0 21.0 0.00 0.00 0.00 88 1018.0
20260507145705 58 355 10.0 20.0 0.00 0.00 0.00 89 1017.9
20260507145219 58 26 9.0 22.0 0.00 0.00 0.00 90 1018.0
20260507144628 58 346 10.0 21.0 0.00 0.00 0.00 90 1017.8
20260507144152 58 349 10.0 19.0 0.00 0.00 0.00 91 1017.6
20260507143237 58 14 5.0 18.0 0.00 0.00 0.00 92 1017.6
20260507142743 58 34 6.0 18.0 0.00 0.00 0.00 92 1018.0
20260507142136 58 360 5.0 16.0 0.00 0.00 0.00 92 1018.1
20260507141656 58 360 8.0 19.0 0.00 0.00 0.00 91 1018.2
20260507140630 58 360 11.0 19.0 0.00 0.00 0.00 91 1017.8
20260507140141 58 46 7.0 21.0 0.00 0.00 0.00 91 1017.8
20260507135704 58 5 8.0 15.0 0.00 0.00 0.00 91 1017.6
20260507135158 58 18 9.0 21.0 0.00 0.00 0.00 90 1017.9
20260507134720 58 25 10.0 21.0 0.00 0.00 0.00 90 1017.8
20260507134215 58 355 10.0 19.0 0.00 0.00 0.00 90 1018.1
20260507133707 59 355 10.0 19.0 0.00 0.00 0.00 90 1018.1
20260507133203 59 332 4.0 11.0 0.00 0.00 0.00 89 1018.2
20260507132702 59 22 6.0 13.0 0.00 0.00 0.00 89 1018.1
20260507132213 59 15 7.0 19.0 0.00 0.00 0.00 89 1017.8
20260507131649 59 336 7.0 19.0 0.00 0.00 0.00 88 1018.0
20260507131215 59 5 7.0 16.0 0.00 0.00 0.00 88 1017.6
20260507130709 59 323 5.0 16.0 0.00 0.00 0.00 88 1017.8
20260507130204 59 360 8.0 14.0 0.00 0.00 0.00 87 1017.5
20260507125703 59 338 7.0 19.0 0.00 0.00 0.00 87 1017.7
20260507125153 59 71 10.0 19.0 0.00 0.00 0.00 87 1017.7
20260507124643 59 13 8.0 19.0 0.00 0.00 0.00 87 1017.7
20260507124206 59 24 10.0 23.0 0.00 0.00 0.00 87 1017.6
20260507123721 59 350 11.0 23.0 0.00 0.00 0.00 87 1017.4
20260507123127 59 9 8.0 16.0 0.00 0.00 0.00 87 1017.3
20260507122650 59 345 5.0 13.0 0.00 0.00 0.00 87 1017.6
20260507122159 59 326 5.0 15.0 0.00 0.00 0.00 86 1017.3
20260507121200 59 17 2.0 16.0 0.00 0.00 0.00 86 1017.2
20260507120630 60 5 7.0 20.0 0.00 0.00 0.00 86 1016.9
20260507120132 60 49 9.0 20.0 0.00 0.00 0.00 86 1016.5
20260507115644 60 31 9.0 19.0 0.00 0.00 0.00 86 1016.3
20260507115156 60 31 6.0 19.0 0.00 0.00 0.00 85 1016.3
20260507114639 60 321 9.0 25.0 0.00 0.00 0.00 85 1016.3
20260507114134 60 327 9.0 25.0 0.00 0.00 0.00 85 1016.4
20260507113642 60 316 8.0 22.0 0.00 0.00 0.00 85 1016.2
20260507113138 60 355 11.0 19.0 0.00 0.00 0.00 84 1016.4
20260507112652 60 342 7.0 21.0 0.00 0.00 0.00 84 1016.2
20260507112141 60 344 7.0 21.0 0.00 0.00 0.00 84 1016.2
20260507102628 61 355 10.0 16.0 0.00 0.00 0.00 83 1015.8
20260507102140 61 355 4.0 11.0 0.00 0.00 0.00 84 1015.7
20260507101642 61 347 5.0 12.0 0.00 0.00 0.00 84 1015.6
20260507101134 61 355 5.0 16.0 0.00 0.00 0.00 84 1015.6
20260507100636 61 5 6.0 16.0 0.00 0.00 0.00 84 1015.7
20260507100156 61 346 7.0 14.0 0.00 0.00 0.00 83 1015.4
20260507095638 61 9 6.0 14.0 0.00 0.00 0.00 83 1015.5
20260507095149 61 10 5.0 13.0 0.00 0.00 0.00 83 1015.6
20260507094631 61 351 6.0 19.0 0.00 0.00 0.00 83 1015.6
20260507094146 61 26 8.0 19.0 0.00 0.00 0.00 83 1015.7
20260507093649 61 13 6.0 18.0 0.00 0.00 0.00 83 1015.4
20260507093139 61 22 8.0 18.0 0.00 0.00 0.00 83 1015.4
20260507092645 61 346 6.0 13.0 0.00 0.00 0.00 83 1015.5
20260507092136 61 5 7.0 13.0 0.00 0.00 0.00 83 1015.6
20260507091637 61 319 3.0 14.0 0.00 0.00 0.00 83 1015.6
20260507091149 61 324 8.0 14.0 0.00 0.00 0.00 83 1015.5
20260507090638 61 344 8.0 14.0 0.00 0.00 0.00 83 1015.4
20260507090137 61 360 3.0 11.0 0.00 0.00 0.00 83 1015.7
20260507085630 61 11 6.0 14.0 0.00 0.00 0.00 83 1015.5
20260507085130 61 360 7.0 14.0 0.00 0.00 0.00 83 1015.5
20260507084641 62 17 6.0 11.0 0.00 0.00 0.00 83 1015.6
20260507084152 62 25 5.0 13.0 0.00 0.00 0.00 83 1015.4
20260507083634 62 5 6.0 13.0 0.00 0.00 0.00 83 1015.4
20260507083144 62 5 5.0 11.0 0.00 0.00 0.00 83 1015.6
20260507082654 62 33 6.0 11.0 0.00 0.00 0.00 83 1015.6
20260507082138 62 23 5.0 11.0 0.00 0.00 0.00 83 1015.7
20260507081649 62 21 5.0 12.0 0.00 0.00 0.00 83 1015.6
20260507081219 62 35 5.0 10.0 0.00 0.00 0.00 83 1015.6
20260507080659 62 355 3.0 12.0 0.00 0.00 0.00 83 1015.4
20260507080131 62 14 7.0 12.0 0.00 0.00 0.00 83 1015.4
20260507075635 62 14 4.0 11.0 0.00 0.00 0.00 83 1015.4
20260507075130 62 22 6.0 11.0 0.00 0.00 0.00 83 1015.6
20260507074644 62 13 6.0 11.0 0.00 0.00 0.00 83 1015.5
20260507074146 62 355 5.0 8.0 0.00 0.00 0.00 83 1015.6
20260507073652 62 355 4.0 11.0 0.00 0.00 0.00 84 1015.6
20260507073133 62 360 6.0 11.0 0.00 0.00 0.00 84 1015.6
20260507072644 62 11 1.0 9.0 0.00 0.00 0.00 84 1015.8
20260507072215 62 338 4.0 11.0 0.00 0.00 0.00 84 1015.7
20260507071637 62 11 6.0 11.0 0.00 0.00 0.00 84 1015.6
20260507071148 62 355 4.0 10.0 0.00 0.00 0.00 84 1015.7
20260507070630 62 331 4.0 11.0 0.00 0.00 0.00 84 1015.7
20260507070142 62 30 5.0 11.0 0.00 0.00 0.00 84 1015.5
20260507065625 62 355 4.0 10.0 0.00 0.00 0.00 84 1015.5
20260507065151 62 30 5.0 10.0 0.00 0.00 0.00 84 1015.5
20260507064638 62 350 2.0 14.0 0.00 0.00 0.00 84 1015.7
20260507064126 62 16 5.0 14.0 0.00 0.00 0.00 83 1015.6
20260507063635 62 11 4.0 8.0 0.00 0.00 0.00 84 1015.6
20260507063133 62 41 4.0 11.0 0.00 0.00 0.00 84 1015.8
20260507062642 62 5 5.0 11.0 0.00 0.00 0.00 84 1015.7
20260507062130 62 19 5.0 13.0 0.00 0.00 0.00 84 1015.5
20260507061629 62 44 4.0 12.0 0.00 0.00 0.00 84 1015.5
20260507061129 62 17 6.0 13.0 0.00 0.00 0.00 84 1015.5
20260507060628 62 55 7.0 14.0 0.00 0.00 0.00 84 1015.5
20260507060135 62 59 5.0 13.0 0.00 0.00 0.00 84 1015.4
20260507055640 62 25 3.0 9.0 0.00 0.00 0.00 84 1015.5
20260507055138 62 34 1.0 11.0 0.00 0.00 0.00 84 1015.3
20260507054626 62 5 5.0 12.0 0.00 0.00 0.00 84 1015.2
20260507054132 62 335 5.0 12.0 0.00 0.00 0.00 84 1014.8
20260507053631 62 22 7.0 12.0 0.00 0.00 0.00 84 1014.8
20260507053139 63 350 5.0 11.0 0.00 0.00 0.00 84 1014.8
20260507052647 63 350 3.0 11.0 0.00 0.00 0.00 84 1014.7
20260507052134 63 26 4.0 14.0 0.00 0.00 0.00 84 1014.8
20260507051642 63 38 5.0 14.0 0.00 0.00 0.00 84 1014.7
20260507051141 63 5 6.0 12.0 0.00 0.00 0.00 84 1014.9
20260507050628 63 20 3.0 13.0 0.00 0.00 0.00 84 1015.1
20260507050137 63 26 6.0 13.0 0.00 0.00 0.00 84 1014.9
20260507045644 63 38 3.0 12.0 0.00 0.00 0.00 83 1014.9
20260507045146 63 25 6.0 12.0 0.00 0.00 0.00 84 1015.2
20260507044637 63 36 4.0 12.0 0.00 0.00 0.00 83 1015.2
20260507044207 63 355 5.0 12.0 0.00 0.00 0.00 83 1015.1
20260507043658 63 40 4.0 10.0 0.00 0.00 0.00 83 1015.0
20260507043159 63 339 5.0 13.0 0.00 0.00 0.00 84 1014.9
20260507042648 63 345 7.0 18.0 0.00 0.00 0.00 83 1014.8
20260507042135 63 341 10.0 18.0 0.00 0.00 0.00 83 1014.9
20260507041708 63 331 8.0 18.0 0.00 0.00 0.00 83 1014.9
20260507041200 63 337 7.0 12.0 0.00 0.00 0.00 84 1014.6
20260507040641 63 13 8.0 15.0 0.00 0.00 0.00 84 1014.6
20260507040152 63 36 8.0 15.0 0.00 0.00 0.00 84 1014.5
20260507035633 63 13 6.0 16.0 0.00 0.00 0.00 84 1014.4
20260507035159 63 19 8.0 18.0 0.00 0.00 0.00 84 1014.2
20260507034649 63 339 10.0 18.0 0.00 0.00 0.00 84 1014.2
20260507034131 63 13 8.0 15.0 0.00 0.00 0.00 84 1014.2
20260507033642 63 355 8.0 16.0 0.00 0.00 0.00 84 1014.2
20260507033144 63 348 11.0 16.0 0.00 0.00 0.00 84 1014.2
20260507032655 63 355 6.0 20.0 0.00 0.00 0.00 84 1014.2
20260507032137 63 355 10.0 20.0 0.00 0.00 0.00 84 1013.7
20260507031647 63 52 10.0 15.0 0.00 0.00 0.00 84 1014.0
20260507031155 63 355 6.0 14.0 0.00 0.00 0.00 84 1014.2
20260507030642 63 21 9.0 14.0 0.00 0.00 0.00 84 1014.3
20260507030155 63 360 7.0 18.0 0.00 0.00 0.00 84 1014.3
20260507025636 63 351 5.0 18.0 0.00 0.00 0.00 84 1014.1
20260507025216 63 346 8.0 19.0 0.00 0.00 0.00 84 1014.2
20260507024657 63 338 7.0 15.0 0.00 0.00 0.00 84 1014.1
20260507024140 63 5 6.0 14.0 0.00 0.00 0.00 84 1014.1
20260507023653 63 355 6.0 14.0 0.00 0.00 0.00 84 1014.1
20260507023133 63 326 8.0 14.0 0.00 0.00 0.00 84 1014.0
20260507022645 63 344 6.0 15.0 0.00 0.00 0.00 84 1014.2
20260507022218 63 360 6.0 15.0 0.00 0.00 0.00 84 1014.1
20260507021639 63 26 6.0 14.0 0.00 0.00 0.00 84 1014.0
20260507021150 63 22 7.0 16.0 0.00 0.00 0.00 84 1013.7
20260507020632 63 5 10.0 20.0 0.00 0.00 0.00 84 1013.4
20260507020139 63 355 10.0 20.0 0.00 0.00 0.00 83 1012.9
20260507015641 63 355 8.0 15.0 0.00 0.00 0.00 83 1012.9
20260507015131 63 326 8.0 19.0 0.00 0.00 0.00 83 1013.2
20260507014633 63 13 10.0 19.0 0.00 0.00 0.00 83 1013.2